Regional Weather Roundup
Issued by NWS

Home | Current Version | Previous Version | Graphics & Text | Print | Product List | Glossary On
Versions: 1 2 3 4 5 6 7 8 9 10 11 12 13 14 15 16 17 18 19 20 21 22 23 24 25 26 27 28 29 30 31 32 33 34 35 36 37 38 39 40 41 42 43 44 45 46 47 48 49 50
000
ASUS43 KLMK 022302
RWRKY
KENTUCKY REGIONAL WEATHER ROUNDUP
NATIONAL WEATHER SERVICE LOUISVILLE KY
600 PM EST MON MAR 02 2015

NOTE "FAIR" INDICATES FEW OR NO CLOUDS BELOW 12,000 FEET
WITH NO SIGNIFICANT WEATHER AND/OR OBSTRUCTIONS TO VISIBILITY.

KYZ001>023-026-027-061>063-070>075-030000-
WESTERN AND SOUTH CENTRAL KENTUCKY

CITY           SKY/WX    TMP DP  RH WIND       PRES   REMARKS
PADUCAH        MOCLDY    39  21  48 E5        30.36F
HENDERSON      MOCLDY    36  19  51 NE8       30.38F WCI  29
OWENSBORO      PTCLDY    40  19  43 NE8       30.38F WCI  34
HOPKINSVILLE   MOCLDY    42  25  51 NE6       30.34F
BOWLING GREEN  MOCLDY    43  21  41 E9        30.36F
GLASGOW        NOT AVBL
$$

KYZ024-025-028>034-038-045-046-053-030000-
NORTH CENTRAL KENTUCKY

CITY           SKY/WX    TMP DP  RH WIND       PRES   REMARKS
LOUISVILLE/SDF MOCLDY    38  17  42 NE6       30.42S WCI  33
LOUISVILLE/LOU PTCLDY    37  17  44 NE5       30.42S WCI  33
FORT KNOX      MOCLDY    37  20  49 NE6       30.38S WCI  33
$$

KYZ035>037-039>044-047>052-055>060-089>105-030000-
NORTHEAST KENTUCKY

CITY           SKY/WX    TMP DP  RH WIND       PRES   REMARKS
LEXINGTON      PTCLDY    33  21  61 MISG      30.40F
COVINGTON      MOCLDY    33  13  43 NE3       30.42S
FRANKFORT      CLEAR     34  19  54 E6        30.40S WCI  29
$$

KYZ054-064>069-076>088-106>120-030000-
SOUTHEAST KENTUCKY

CITY           SKY/WX    TMP DP  RH WIND       PRES   REMARKS
JACKSON        MOCLDY    39  16  39 CALM      30.35S
LONDON         PTCLDY    44  18  35 N5        30.34F
SOMERSET       NOT AVBL
MIDDLESBORO    PTCLDY    44  29  55 CALM      30.33F
MONTICELLO     CLEAR     43  27  53 N9        30.38S
$$




USA.gov is the U.S. government's official web portal to all federal, state and local government web resources and services.